Date String (YYYY-MM-DD hh:mm:ss) UTC,Instrument flags,absolute air pressure of the measurement (hPa),sample flow rate (lpm),inlet stack bypass flow (lpm),air temperature of the measurement (°C),ambient temperature measured by the external sensor (°C),aerosol sample conditioner tube jacket temperature (°C),OPC LED temperature (°C),internal box temperature (°C),relative humidity of the measurement (%),span deviation,mass concentration of particles derived from Lorenz-Mie calculation of OPC scattering (μg/m³),mass concentration of particles derived from Lorenz-Mie calculation of OPC scattering (μg/m³),mass concentration of particles derived from Lorenz-Mie calculation of OPC scattering (μg/m³)
DateTimeUTC,F1_M11,P_M11,Q1_M11,Q2_M11,T1_M11,T2_M11,T3_M11,T4_M11,T5_M11,U1_M11,ZSPAN_M11,X0_M11,X2_M11,X1_M11
2024-04-10 00:00:00,SystemResetWarning,0825.9,4.99,000.00,027.1,026.4,000.0,035.4,028.9,010.4,0005.2,0018.27,0006.44,0005.39
2024-04-10 00:01:00,SystemResetWarning,0825.9,5.00,000.00,027.1,026.4,000.0,035.4,028.9,010.1,0005.3,0017.24,0006.44,0005.38
2024-04-10 00:02:00,SystemResetWarning,0825.9,5.00,000.00,027.1,026.4,000.0,035.5,028.9,010.3,0005.1,0016.80,0006.48,0005.39
2024-04-10 00:03:00,SystemResetWarning,0825.9,5.00,000.00,027.1,026.4,000.0,035.5,028.9,010.2,0005.5,0016.81,0006.45,0005.39
2024-04-10 00:04:00,SystemResetWarning,0825.9,5.00,000.00,027.1,026.4,000.0,035.5,028.9,010.2,0005.6,0015.99,0006.43,0005.40
2024-04-10 00:05:00,SystemResetWarning,0825.9,5.00,000.00,027.1,026.4,000.0,035.5,028.9,010.3,0005.5,0016.08,0006.45,0005.39
2024-04-10 00:06:00,SystemResetWarning,0825.9,5.00,000.00,027.1,026.5,000.0,035.5,028.9,010.3,0005.8,0015.39,0006.44,0005.37
2024-04-10 00:07:00,SystemResetWarning,0825.9,5.00,000.00,027.1,026.5,000.0,035.5,029.0,010.2,0006.1,0014.92,0006.41,0005.36
2024-04-10 00:08:00,SystemResetWarning,0825.9,5.00,000.00,027.2,026.5,000.0,035.5,029.0,010.1,0006.2,0015.20,0006.40,0005.34
2024-04-10 00:09:00,SystemResetWarning,0825.9,5.01,000.00,027.2,026.5,000.0,035.5,029.0,010.1,0006.6,0016.66,0006.41,0005.34
2024-04-10 00:10:00,SystemResetWarning,0825.9,5.00,000.00,027.2,026.5,000.0,035.6,029.0,010.1,0005.3,0017.21,0006.42,0005.36
2024-04-10 00:11:00,SystemResetWarning,0825.9,5.01,000.00,027.2,026.5,000.0,035.6,029.0,010.0,0002.6,0017.73,0006.44,0005.38
2024-04-10 00:12:00,SystemResetWarning,0825.9,5.00,000.00,027.2,026.5,000.0,035.6,029.0,010.0,0000.0,0017.88,0006.48,0005.40
2024-04-10 00:13:00,SystemResetWarning,0825.9,5.00,000.00,027.2,026.5,000.0,035.6,029.0,010.1,0009.3,0017.69,0006.46,0005.40
2024-04-10 00:14:00,SystemResetWarning,0825.9,5.00,000.00,027.2,026.5,000.0,035.6,029.0,010.0,0006.9,0018.09,0006.46,0005.39
2024-04-10 00:15:00,SystemResetWarning,0825.9,5.00,000.00,027.2,026.5,000.0,035.6,029.0,010.0,0000.0,0017.80,0006.45,0005.38
2024-04-10 00:16:00,SystemResetWarning,0825.9,4.99,000.00,027.2,026.6,000.0,035.6,029.0,010.1,0000.0,0018.42,0006.41,0005.38
2024-04-10 00:17:00,SystemResetWarning,0825.9,5.00,000.00,027.3,026.6,000.0,035.6,029.1,010.2,0000.0,0018.87,0006.44,0005.39
2024-04-10 00:18:00,SystemResetWarning,0825.9,5.00,000.00,027.3,026.6,000.0,035.7,029.1,010.0,0000.0,0018.97,0006.46,0005.39
2024-04-10 00:19:00,SystemResetWarning,0825.9,5.00,000.00,027.3,026.6,000.0,035.7,029.1,009.8,0000.0,0019.47,0006.48,0005.39
2024-04-10 00:20:00,SystemResetWarning,0825.9,5.00,000.00,027.3,026.6,000.0,035.7,029.1,009.9,0000.0,0018.38,0006.48,0005.39
2024-04-10 00:21:00,SystemResetWarning,0825.9,5.00,000.00,027.3,026.6,000.0,035.7,029.1,009.9,0001.1,0017.89,0006.46,0005.37
2024-04-10 00:22:00,SystemResetWarning,0826.0,4.99,000.00,027.3,026.4,000.0,035.7,028.9,009.9,0002.4,0017.52,0006.43,0005.34
2024-04-10 00:23:00,SystemResetWarning,0825.9,5.00,000.00,027.0,024.2,000.0,035.8,027.8,010.1,0004.1,0018.63,0006.39,0005.33
2024-04-10 00:24:00,SystemResetWarning,0825.9,5.01,000.00,026.5,022.5,000.0,035.7,026.8,010.5,0005.1,0018.66,0006.37,0005.30
2024-04-10 00:25:00,SystemResetWarning,0825.9,5.01,000.00,026.2,022.5,000.0,035.6,026.7,010.6,0004.7,0017.64,0006.33,0005.28
2024-04-10 00:26:00,SystemResetWarning,0825.9,5.00,000.00,026.0,023.0,000.0,035.4,027.0,010.7,0002.8,0017.57,0006.27,0005.28
2024-04-10 00:27:00,SystemResetWarning,0825.9,5.00,000.00,026.0,023.4,000.0,035.2,027.3,010.8,0002.7,0018.24,0006.28,0005.27
2024-04-10 00:28:00,SystemResetWarning,0825.9,5.00,000.00,026.0,023.8,000.0,035.1,027.5,010.7,0003.3,0017.98,0006.30,0005.27
2024-04-10 00:29:00,SystemResetWarning,0825.9,5.01,000.00,026.1,024.2,000.0,035.0,027.7,010.7,0004.1,0018.06,0006.29,0005.26
2024-04-10 00:30:00,SystemResetWarning,0826.0,5.00,000.00,026.1,024.5,000.0,035.0,027.8,010.6,0005.1,0017.42,0006.26,0005.23
2024-04-10 00:31:00,SystemResetWarning,0826.0,5.00,000.00,026.1,024.8,000.0,034.9,027.9,010.6,0005.0,0017.22,0006.23,0005.20
2024-04-10 00:32:00,SystemResetWarning,0826.0,5.00,000.00,026.2,025.0,000.0,034.9,028.0,010.5,0005.7,0017.37,0006.21,0005.19
2024-04-10 00:33:00,SystemResetWarning,0826.0,5.00,000.00,026.2,025.2,000.0,034.9,028.1,010.5,0005.1,0017.76,0006.23,0005.19
2024-04-10 00:34:00,SystemResetWarning,0826.0,5.00,000.00,026.3,025.4,000.0,034.9,028.1,010.5,0003.6,0017.54,0006.19,0005.18
2024-04-10 00:35:00,SystemResetWarning,0826.0,5.00,000.00,026.3,025.5,000.0,034.9,028.2,010.7,0001.2,0017.78,0006.17,0005.17
2024-04-10 00:36:00,SystemResetWarning,0826.1,5.00,000.00,026.4,025.6,000.0,034.9,028.2,010.6,0000.9,0018.03,0006.18,0005.16
2024-04-10 00:37:00,SystemResetWarning,0826.0,5.00,000.00,026.4,025.7,000.0,034.9,028.3,010.4,0001.0,0018.40,0006.23,0005.14
2024-04-10 00:38:00,SystemResetWarning,0826.1,5.00,000.00,026.4,025.8,000.0,034.9,028.3,010.4,0001.0,0017.91,0006.26,0005.12
2024-04-10 00:39:00,SystemResetWarning,0826.1,5.00,000.00,026.5,025.9,000.0,034.9,028.4,010.4,0000.1,0018.04,0006.24,0005.10
2024-04-10 00:40:00,SystemResetWarning,0826.1,5.00,000.00,026.5,025.9,000.0,034.9,028.4,010.2,-000.0,0018.13,0006.23,0005.10
2024-04-10 00:41:00,SystemResetWarning,0826.1,5.00,000.00,026.6,026.0,000.0,034.9,028.5,010.0,0000.0,0018.59,0006.21,0005.14
2024-04-10 00:42:00,SystemResetWarning,0826.1,5.00,000.00,026.6,026.0,000.0,034.9,028.5,010.0,0000.1,0018.68,0006.20,0005.16
2024-04-10 00:43:00,SystemResetWarning,0826.1,5.00,000.00,026.6,026.1,000.0,035.0,028.5,010.1,-000.0,0018.60,0006.20,0005.16
2024-04-10 00:44:00,SystemResetWarning,0826.1,5.00,000.00,026.7,026.1,000.0,035.0,028.6,010.1,0000.0,0019.31,0006.19,0005.15
2024-04-10 00:45:00,SystemResetWarning,0826.1,4.99,000.00,026.7,026.2,000.0,035.0,028.6,010.1,0000.0,0019.07,0006.24,0005.15
2024-04-10 00:46:00,SystemResetWarning,0826.1,4.99,000.00,026.7,026.2,000.0,035.0,028.7,010.2,0000.0,0017.99,0006.26,0005.13
2024-04-10 00:47:00,SystemResetWarning,0826.1,5.01,000.00,026.8,026.2,000.0,035.1,028.7,010.1,0000.0,0017.61,0006.23,0005.13
2024-04-10 00:48:00,SystemResetWarning,0826.1,5.01,000.00,026.8,026.3,000.0,035.1,028.7,009.8,0001.3,0017.06,0006.20,0005.12
2024-04-10 00:49:00,SystemResetWarning,0826.2,5.00,000.00,026.8,026.3,000.0,035.1,028.7,009.7,0001.8,0016.37,0006.20,0005.13
2024-04-10 00:50:00,SystemResetWarning,0826.1,4.99,000.00,026.9,026.3,000.0,035.1,028.8,009.8,0002.7,0016.23,0006.20,0005.12
2024-04-10 00:51:00,SystemResetWarning,0826.2,4.99,000.00,026.9,026.3,000.0,035.2,028.7,009.9,0005.5,0016.81,0006.21,0005.11
2024-04-10 00:52:00,SystemResetWarning,0826.0,5.00,000.00,026.7,024.4,000.0,035.2,027.7,010.0,0003.6,0016.85,0006.22,0005.08
2024-04-10 00:53:00,SystemResetWarning,0826.0,5.00,000.00,026.1,022.0,000.0,035.2,026.3,010.4,0001.5,0017.57,0006.25,0005.05
2024-04-10 00:54:00,SystemResetWarning,0826.0,5.01,000.00,025.7,021.8,000.0,035.1,026.0,010.7,0000.0,0017.12,0006.25,0005.03
2024-04-10 00:55:00,SystemResetWarning,0826.0,5.01,000.00,025.5,022.2,000.0,034.9,026.3,010.8,0000.0,0016.24,0006.23,0005.02
2024-04-10 00:56:00,SystemResetWarning,0826.0,5.00,000.00,025.5,022.7,000.0,034.7,026.7,010.8,0003.3,0017.06,0006.23,0005.01
2024-04-10 00:57:00,SystemResetWarning,0826.1,4.99,000.00,025.6,023.2,000.0,034.6,027.0,010.8,0005.3,0017.39,0006.20,0005.00
2024-04-10 00:58:00,SystemResetWarning,0826.2,4.99,000.00,025.6,023.6,000.0,034.5,027.2,010.8,0005.0,0018.90,0006.22,0004.99
2024-04-10 00:59:00,SystemResetWarning,0826.2,5.00,000.00,025.6,024.0,000.0,034.5,027.3,010.9,0001.0,0019.63,0006.26,0005.00
